EW9200 Weather Reports


Display with metric or nautical units.
time (UTC)temp
F
wind
direction
speed
MPH
gust
MPH
rain 1hr
in
rain 24hr
in
rain mn
in
humidity
%
barometer
mb
20260506082030 42 0 0.0 1.0 0.00 0.13 0.00 69 1011.2
20260506081544 42 344 0.0 0.0 0.00 0.13 0.00 68 1011.0
20260506081031 42 0 0.0 0.0 0.00 0.13 0.00 68 1011.1
20260506080532 43 0 0.0 1.0 0.00 0.13 0.00 67 1011.2
20260506073044 45 349 0.0 3.0 0.00 0.13 0.00 63 1011.0
20260506072530 46 0 0.0 3.0 0.00 0.13 0.00 62 1010.9
20260506072035 46 11 0.0 3.0 0.00 0.13 0.00 62 1010.9
20260506071545 46 356 1.0 3.0 0.00 0.13 0.00 61 1010.7
20260506071031 46 360 1.0 3.0 0.00 0.13 0.00 61 1010.7
20260506070531 46 311 0.0 3.0 0.00 0.13 0.00 62 1010.5
20260506062030 46 0 0.0 1.0 0.00 0.13 0.00 65 1010.4
20260506061539 45 0 0.0 1.0 0.00 0.13 0.00 65 1010.3
20260506061031 45 0 0.0 1.0 0.00 0.13 0.00 65 1010.3
20260506060530 46 0 0.0 1.0 0.00 0.13 0.00 65 1010.4
20260506051028 49 283 0.0 1.0 0.00 0.13 0.00 59 1010.2
20260506050529 49 0 0.0 3.0 0.00 0.13 0.00 60 1010.2
20260506045028 50 307 0.0 2.0 0.00 0.13 0.13 64 1010.1
20260506044548 49 302 0.0 2.0 0.00 0.13 0.13 66 1010.0
20260506044028 49 338 0.0 1.0 0.00 0.13 0.13 68 1010.1
20260506043530 49 0 0.0 1.0 0.00 0.13 0.13 68 1010.1
20260506043036 49 0 0.0 0.0 0.00 0.13 0.13 69 1010.2
20260506042529 49 0 0.0 0.0 0.00 0.13 0.13 69 1010.2
20260506042029 49 0 0.0 0.0 0.00 0.13 0.13 69 1010.2
20260506041552 49 0 0.0 0.0 0.00 0.13 0.13 69 1010.2
20260506041030 49 0 0.0 0.0 0.00 0.13 0.13 68 1010.0
20260506040528 49 0 0.0 0.0 0.00 0.13 0.13 68 1010.1
20260506040044 49 0 0.0 0.0 0.00 0.13 0.13 69 1010.2
20260506035528 49 0 0.0 0.0 0.00 0.13 0.13 70 1010.4
20260506035028 49 0 0.0 0.0 0.00 0.13 0.13 72 1010.4
20260506034544 49 0 0.0 0.0 0.00 0.13 0.13 70 1010.7
20260506034028 49 0 0.0 0.0 0.00 0.13 0.13 68 1010.2
20260506033528 49 0 0.0 0.0 0.00 0.13 0.13 68 1010.0
20260506033038 49 0 0.0 0.0 0.00 0.13 0.13 68 1010.2
20260506032528 49 0 0.0 0.0 0.00 0.13 0.13 68 1010.2
20260506032028 49 0 0.0 0.0 0.00 0.13 0.13 68 1010.1
20260506031541 49 0 0.0 0.0 0.00 0.13 0.13 67 1010.1
20260506031029 49 0 0.0 0.0 0.00 0.13 0.13 66 1010.1
20260506030531 49 0 0.0 0.0 0.00 0.13 0.13 67 1010.0
20260506030041 50 0 0.0 0.0 0.00 0.13 0.13 65 1009.9
20260506025528 50 0 0.0 0.0 0.00 0.13 0.13 64 1009.9
20260506025028 50 0 0.0 0.0 0.00 0.13 0.13 64 1009.7
20260506024555 50 0 0.0 0.0 0.00 0.13 0.13 64 1009.7
20260506024033 50 0 0.0 0.0 0.00 0.13 0.13 64 1009.5
20260506023529 50 0 0.0 0.0 0.00 0.13 0.13 64 1009.5
20260506023039 50 0 0.0 0.0 0.00 0.13 0.13 64 1009.7
20260506022528 50 0 0.0 0.0 0.00 0.13 0.13 64 1009.6
20260506022028 50 0 0.0 0.0 0.00 0.13 0.13 63 1009.7
20260506021546 50 0 0.0 0.0 0.00 0.13 0.13 63 1009.7
20260506021059 50 0 0.0 0.0 0.00 0.13 0.13 63 1009.7
20260506020530 50 0 0.0 0.0 0.00 0.13 0.13 63 1009.5
20260506020044 50 0 0.0 0.0 0.00 0.13 0.13 63 1009.5
20260506015533 50 0 0.0 0.0 0.00 0.14 0.13 62 1009.4
20260506015031 51 0 0.0 0.0 0.00 0.14 0.13 60 1009.3
20260506014541 51 0 0.0 0.0 0.00 0.14 0.13 60 1009.2
20260506014030 51 0 0.0 0.0 0.00 0.14 0.13 59 1009.0
20260506013532 51 0 0.0 0.0 0.00 0.14 0.13 58 1008.9
20260506013047 51 0 0.0 0.0 0.00 0.14 0.13 58 1009.0
20260506012530 52 0 0.0 0.0 0.00 0.14 0.13 58 1008.9
20260506012030 52 0 0.0 0.0 0.00 0.14 0.13 57 1008.8
20260506011609 52 0 0.0 1.0 0.00 0.14 0.13 57 1008.9
20260506011031 52 0 0.0 1.0 0.00 0.14 0.13 56 1008.7
20260506010530 52 0 0.0 1.0 0.00 0.14 0.13 55 1008.7
20260506010044 52 20 0.0 1.0 0.00 0.14 0.13 55 1008.8
20260506005531 53 0 0.0 1.0 0.00 0.15 0.13 54 1008.7
20260506005033 53 19 0.0 1.0 0.00 0.15 0.13 53 1008.7
20260506004550 53 20 0.0 2.0 0.00 0.15 0.13 51 1008.8
20260506004031 53 18 0.0 2.0 0.00 0.15 0.13 51 1008.6
20260506003531 53 17 0.0 2.0 0.00 0.15 0.13 50 1008.6
20260506003044 53 0 0.0 2.0 0.00 0.15 0.13 51 1008.5
20260506002530 54 0 0.0 4.0 0.00 0.15 0.13 50 1008.6
20260506002028 54 324 0.0 4.0 0.00 0.15 0.13 49 1008.6
20260506001544 54 327 1.0 4.0 0.00 0.15 0.13 48 1008.5
20260506001031 54 303 1.0 4.0 0.00 0.15 0.13 47 1008.2
20260506000533 54 290 1.0 7.0 0.00 0.15 0.13 47 1008.7
20260506000057 54 311 3.0 7.0 0.00 0.15 0.13 46 1008.5
20260505235530 54 354 3.0 6.0 0.00 0.17 0.13 45 1008.3
20260505235030 54 358 1.0 4.0 0.00 0.17 0.13 46 1008.3
20260505234541 54 16 1.0 7.0 0.00 0.17 0.13 47 1008.3
20260505234034 55 340 2.0 7.0 0.00 0.17 0.13 47 1008.2
20260505233534 55 348 1.0 4.0 0.00 0.17 0.13 49 1008.5
20260505233041 55 293 1.0 3.0 0.00 0.17 0.13 48 1008.5
20260505232531 55 18 1.0 4.0 0.00 0.17 0.13 47 1008.6
20260505232032 55 322 2.0 4.0 0.00 0.17 0.13 46 1008.6
20260505231544 55 278 1.0 4.0 0.00 0.17 0.13 47 1008.5
20260505231030 55 58 1.0 4.0 0.00 0.17 0.13 48 1008.3
20260505230530 55 286 1.0 3.0 0.00 0.17 0.13 46 1008.5
20260505230043 55 311 1.0 6.0 0.00 0.17 0.13 45 1008.4
20260505225530 55 290 2.0 6.0 0.00 0.24 0.13 44 1008.6
20260505225030 55 58 1.0 6.0 0.00 0.24 0.13 43 1008.6
20260505224543 56 8 0.0 10.0 0.00 0.24 0.13 45 1008.8
20260505224031 56 334 3.0 10.0 0.00 0.24 0.13 43 1008.8
20260505223531 56 316 2.0 9.0 0.00 0.24 0.13 44 1008.9
20260505223044 56 75 1.0 9.0 0.00 0.24 0.13 45 1008.8
20260505222531 56 312 3.0 9.0 0.00 0.24 0.13 42 1008.9
20260505222031 56 297 2.0 6.0 0.00 0.24 0.13 43 1008.8
20260505221546 56 293 2.0 9.0 0.00 0.24 0.13 43 1008.9
20260505221031 56 319 3.0 9.0 0.00 0.24 0.13 42 1008.8
20260505220533 56 337 2.0 5.0 0.00 0.24 0.13 43 1008.8
20260505220100 56 147 1.0 6.0 0.00 0.24 0.13 44 1008.8
20260505215531 56 290 3.0 6.0 0.00 0.33 0.13 41 1008.7
20260505215030 56 326 2.0 6.0 0.00 0.33 0.13 43 1008.9
20260505214550 56 17 2.0 8.0 0.00 0.33 0.13 41 1009.1
20260505214030 55 271 2.0 8.0 0.00 0.33 0.13 44 1008.9
20260505213530 56 323 2.0 8.0 0.00 0.33 0.13 43 1008.9
20260505213047 56 285 1.0 6.0 0.00 0.33 0.13 46 1008.9
20260505212530 56 288 2.0 5.0 0.00 0.33 0.13 44 1009.0
20260505212030 56 34 2.0 5.0 0.00 0.33 0.13 44 1009.0
20260505211545 56 308 1.0 4.0 0.00 0.33 0.13 44 1009.0
20260505211030 56 283 1.0 5.0 0.00 0.33 0.13 47 1009.1
20260505210529 56 278 2.0 5.0 0.00 0.33 0.13 47 1009.0
20260505210050 55 297 2.0 5.0 0.00 0.33 0.13 45 1008.8
20260505205533 55 214 0.0 4.0 0.00 0.33 0.13 49 1009.0
20260505205029 55 45 1.0 4.0 0.00 0.33 0.13 48 1009.0
20260505204552 55 3 1.0 4.0 0.00 0.33 0.13 46 1009.0
20260505204030 55 26 1.0 3.0 0.00 0.33 0.13 49 1009.2
20260505203530 55 360 1.0 3.0 0.00 0.33 0.13 46 1009.1
20260505203042 55 0 0.0 6.0 0.00 0.33 0.13 48 1009.3
20260505202530 55 21 2.0 7.0 0.00 0.33 0.13 44 1009.3
20260505202030 55 311 1.0 7.0 0.00 0.33 0.13 47 1009.3
20260505201547 55 285 2.0 7.0 0.00 0.33 0.13 44 1009.4
20260505201030 55 249 1.0 6.0 0.00 0.33 0.13 47 1009.4
20260505200529 55 350 2.0 6.0 0.00 0.33 0.13 45 1009.4
20260505200042 55 278 3.0 6.0 0.00 0.33 0.13 45 1009.5
20260505195531 55 304 2.0 5.0 0.00 0.33 0.13 47 1009.4
20260505195029 55 355 1.0 5.0 0.00 0.33 0.13 48 1009.3
20260505194551 55 180 1.0 6.0 0.00 0.33 0.13 49 1009.4
20260505194030 55 354 2.0 7.0 0.00 0.33 0.13 48 1009.2
20260505193530 55 336 3.0 7.0 0.00 0.33 0.13 49 1009.2
20260505193043 55 330 1.0 4.0 0.00 0.33 0.13 49 1009.3
20260505192530 56 18 1.0 4.0 0.00 0.33 0.13 48 1009.5
20260505192031 56 327 1.0 4.0 0.00 0.33 0.13 48 1009.5
20260505191540 56 11 1.0 6.0 0.00 0.33 0.13 48 1009.5
20260505191030 55 20 2.0 9.0 0.00 0.33 0.13 47 1009.5
20260505190530 55 25 3.0 10.0 0.00 0.33 0.13 47 1009.6
20260505190038 56 332 3.0 10.0 0.00 0.33 0.13 47 1009.7
20260505185530 56 288 3.0 9.0 0.00 0.33 0.13 47 1009.5
20260505185034 56 31 2.0 9.0 0.00 0.33 0.13 49 1009.4
20260505184550 56 321 2.0 10.0 0.00 0.33 0.13 48 1009.4
20260505184029 56 295 3.0 10.0 0.00 0.33 0.13 48 1009.6
20260505183529 56 25 2.0 8.0 0.00 0.33 0.13 46 1009.5
20260505183050 56 8 3.0 8.0 0.00 0.33 0.13 45 1009.6
20260505182529 57 312 3.0 10.0 0.00 0.33 0.13 47 1009.6
20260505182029 57 283 1.0 10.0 0.00 0.33 0.13 49 1009.5
20260505181543 57 308 4.0 10.0 0.00 0.33 0.13 46 1009.4
20260505181029 57 14 3.0 7.0 0.00 0.33 0.13 46 1009.3
20260505180530 57 34 2.0 7.0 0.00 0.33 0.13 46 1009.3
20260505180041 57 36 2.0 5.0 0.00 0.33 0.13 45 1009.5
20260505175530 57 321 1.0 7.0 0.00 0.33 0.13 47 1009.4
20260505175030 57 316 3.0 7.0 0.00 0.33 0.13 45 1009.3
20260505174544 57 345 2.0 7.0 0.00 0.33 0.13 46 1009.2
20260505174029 57 315 2.0 6.0 0.00 0.33 0.13 48 1009.3
20260505173530 57 342 1.0 7.0 0.00 0.33 0.13 49 1009.2
20260505173044 56 217 2.0 7.0 0.00 0.33 0.13 48 1009.2
20260505172529 56 343 1.0 8.0 0.00 0.33 0.13 51 1009.3
20260505172031 56 349 4.0 8.0 0.00 0.33 0.13 46 1009.2
20260505171545 57 292 1.0 4.0 0.00 0.33 0.13 50 1009.2
20260505171031 57 311 1.0 4.0 0.00 0.33 0.13 49 1009.2
20260505170529 57 237 1.0 5.0 0.00 0.33 0.13 53 1009.1
20260505170049 56 0 2.0 5.0 0.00 0.33 0.13 53 1009.1
20260505165529 56 1 1.0 5.0 0.00 0.33 0.13 55 1009.0
20260505165030 56 195 0.0 7.0 0.00 0.33 0.13 57 1009.0
20260505164555 56 343 2.0 7.0 0.00 0.33 0.13 56 1009.1
20260505164030 56 274 3.0 7.0 0.00 0.33 0.13 57 1009.0
20260505163531 56 304 2.0 7.0 0.00 0.33 0.13 55 1009.1
20260505163044 56 332 3.0 6.0 0.00 0.33 0.13 55 1009.2
20260505162529 56 239 1.0 6.0 0.00 0.33 0.13 60 1009.1
20260505162029 56 25 2.0 6.0 0.00 0.33 0.13 57 1009.3
20260505161550 56 221 1.0 7.0 0.00 0.33 0.13 61 1009.1
20260505161029 56 50 1.0 7.0 0.00 0.33 0.13 63 1009.3
20260505160529 55 45 2.0 7.0 0.00 0.33 0.13 62 1009.2
20260505153046 54 93 1.0 4.0 0.00 0.33 0.13 64 1008.9
20260505152530 54 356 1.0 3.0 0.00 0.33 0.13 69 1009.0
20260505152031 53 0 0.0 1.0 0.00 0.33 0.13 71 1008.8
20260505151543 52 200 0.0 1.0 0.00 0.33 0.13 74 1008.8
20260505151029 51 216 0.0 2.0 0.00 0.33 0.13 77 1008.9
20260505150529 51 312 0.0 2.0 0.00 0.33 0.13 77 1008.8
20260505140530 44 25 1.0 2.0 0.05 0.33 0.13 95 1009.1
20260505125028 44 347 0.0 6.0 0.06 0.26 0.06 88 1008.6
20260505124549 44 347 1.0 6.0 0.06 0.26 0.06 87 1008.7
20260505124028 44 8 2.0 8.0 0.05 0.25 0.05 86 1008.7
20260505123528 44 318 3.0 8.0 0.05 0.25 0.05 85 1008.8
20260505123046 44 359 2.0 6.0 0.05 0.25 0.05 85 1008.7
20260505122530 45 312 2.0 8.0 0.05 0.25 0.05 84 1008.5
20260505122029 45 354 3.0 8.0 0.04 0.24 0.04 82 1008.3
20260505121537 46 293 3.0 7.0 0.04 0.24 0.04 80 1008.6
20260505121029 47 9 1.0 10.0 0.03 0.23 0.03 79 1008.7
20260505120529 48 4 3.0 10.0 0.02 0.22 0.02 76 1008.9
20260505120059 49 20 4.0 6.0 0.01 0.21 0.01 73 1008.7
20260505115529 50 358 3.0 7.0 0.00 0.20 0.00 68 1008.6
20260505115032 50 330 2.0 7.0 0.00 0.20 0.00 67 1008.5
20260505114544 51 34 1.0 7.0 0.00 0.20 0.00 65 1008.3
20260505114030 51 333 2.0 7.0 0.00 0.20 0.00 64 1008.0
20260505113528 51 342 3.0 7.0 0.00 0.20 0.00 63 1007.7
20260505113049 51 316 2.0 5.0 0.00 0.20 0.00 64 1007.6
20260505112529 51 334 1.0 4.0 0.00 0.20 0.00 65 1007.4
20260505112029 51 356 1.0 5.0 0.00 0.20 0.00 63 1007.3
20260505111537 51 12 1.0 5.0 0.00 0.20 0.00 64 1007.2
20260505111029 51 14 1.0 4.0 0.00 0.20 0.00 64 1007.1
20260505110528 51 314 0.0 2.0 0.00 0.20 0.00 67 1006.8
20260505102030 51 0 0.0 2.0 0.00 0.20 0.00 73 1006.7
20260505101536 51 0 0.0 2.0 0.00 0.20 0.00 72 1006.4
20260505101029 51 0 0.0 2.0 0.00 0.20 0.00 73 1006.6
20260505100534 51 0 0.0 6.0 0.00 0.20 0.00 73 1006.2
20260505100036 51 273 1.0 6.0 0.00 0.20 0.00 73 1006.4
20260505095528 51 0 0.0 1.0 0.00 0.20 0.00 73 1005.8
20260505095030 51 0 0.0 1.0 0.00 0.20 0.00 73 1005.7
20260505094542 51 0 0.0 2.0 0.00 0.20 0.00 72 1005.9
20260505094029 51 329 0.0 2.0 0.00 0.20 0.00 71 1005.7
20260505093530 52 0 0.0 2.0 0.00 0.20 0.00 71 1005.8
20260505093048 52 270 0.0 1.0 0.00 0.20 0.00 70 1005.9
20260505092530 52 0 0.0 2.0 0.00 0.20 0.00 70 1006.0
20260505092029 52 0 0.0 2.0 0.00 0.20 0.00 68 1005.9
20260505091541 52 0 0.0 2.0 0.00 0.20 0.00 68 1006.1
20260505091028 52 0 0.0 1.0 0.00 0.20 0.00 68 1006.2
20260505090529 52 0 0.0 1.0 0.00 0.20 0.00 68 1005.9
20260505090043 53 0 0.0 1.0 0.00 0.20 0.00 67 1005.9
20260505085530 53 0 0.0 1.0 0.00 0.20 0.00 66 1005.5
20260505085029 53 0 0.0 2.0 0.00 0.20 0.00 65 1005.2
20260505084547 53 0 0.0 2.0 0.00 0.20 0.00 64 1005.2
20260505084029 53 0 0.0 4.0 0.00 0.20 0.00 64 1005.4
20260505083529 53 224 0.0 4.0 0.00 0.20 0.00 65 1005.1
20260505083049 53 293 0.0 3.0 0.00 0.20 0.00 65 1004.6
20260505082529 53 254 0.0 1.0 0.00 0.20 0.00 65 1004.6